Time,TemperatureF,DewpointF,PressureIn,WindDirection,WindDirectionDegrees,WindSpeedMPH,WindSpeedGustMPH,Humidity,HourlyPrecipIn,Conditions,Clouds,dailyrainin,SoftwareType,DateUTC
2013-01-07 00:00:00,35.8,32.0,30.21,NNE,25,0.0,0.0,86,0.00,,,0.02,Wunderground v.1.15,2013-01-07 05:00:00,
2013-01-07 00:01:00,35.8,32.0,30.21,NNE,25,0.0,0.0,86,0.00,,,0.00,Wunderground v.1.15,2013-01-07 05:01:00,
2013-01-07 00:03:00,35.9,32.1,30.21,NNE,25,0.0,0.0,86,0.00,,,0.00,Wunderground v.1.15,2013-01-07 05:03:00,
2013-01-07 00:04:00,35.9,32.1,30.21,NNE,25,0.0,0.0,86,0.00,,,0.00,Wunderground v.1.15,2013-01-07 05:04:00,
2013-01-07 00:10:00,36.0,32.2,30.21,NNE,25,0.0,0.0,86,0.00,,,0.00,Wunderground v.1.15,2013-01-07 05:10:00,
2013-01-07 00:15:00,36.1,32.3,30.21,NNE,23,0.0,0.0,86,0.00,,,0.00,Wunderground v.1.15,2013-01-07 05:15:00,
2013-01-07 00:20:00,36.2,32.4,30.21,NNE,23,0.0,0.0,86,0.00,,,0.00,Wunderground v.1.15,2013-01-07 05:20:00,
2013-01-07 00:26:00,36.2,32.4,30.22,NNE,23,0.0,0.0,86,0.00,,,0.00,Wunderground v.1.15,2013-01-07 05:26:00,
2013-01-07 00:32:00,36.2,32.4,30.22,NNE,23,0.0,0.0,86,0.00,,,0.00,Wunderground v.1.15,2013-01-07 05:32:00,
2013-01-07 00:37:00,36.3,32.5,30.22,NNE,23,0.0,1.0,86,0.00,,,0.00,Wunderground v.1.15,2013-01-07 05:37:00,
2013-01-07 00:43:00,36.2,32.1,30.22,NNE,23,0.0,0.0,85,0.00,,,0.00,Wunderground v.1.15,2013-01-07 05:43:00,
2013-01-07 00:49:00,36.1,32.0,30.22,NNE,23,0.0,0.0,85,0.00,,,0.00,Wunderground v.1.15,2013-01-07 05:49:00,
2013-01-07 00:54:00,35.9,31.8,30.22,NNE,23,0.0,0.0,85,0.00,,,0.00,Wunderground v.1.15,2013-01-07 05:54:00,
2013-01-07 01:00:00,35.6,31.5,30.22,NNE,23,0.0,0.0,85,0.00,,,0.00,Wunderground v.1.15,2013-01-07 06:00:00,
2013-01-07 01:06:00,35.0,30.9,30.22,NNE,23,0.0,0.0,85,0.00,,,0.00,Wunderground v.1.15,2013-01-07 06:06:00,
2013-01-07 01:12:00,34.7,30.9,30.21,NNE,25,0.0,0.0,86,0.00,,,0.00,Wunderground v.1.15,2013-01-07 06:12:00,
2013-01-07 01:18:00,34.4,30.6,30.22,NNE,23,0.0,0.0,86,0.00,,,0.00,Wunderground v.1.15,2013-01-07 06:18:00,
2013-01-07 01:24:00,33.9,30.4,30.22,NNE,23,0.0,0.0,87,0.00,,,0.00,Wunderground v.1.15,2013-01-07 06:24:00,
2013-01-07 01:30:00,33.5,30.3,30.21,NNE,23,0.0,0.0,88,0.00,,,0.00,Wunderground v.1.15,2013-01-07 06:30:00,
2013-01-07 01:36:00,33.3,30.1,30.22,NNE,25,0.0,0.0,88,0.00,,,0.00,Wunderground v.1.15,2013-01-07 06:36:00,
2013-01-07 01:42:00,32.8,29.6,30.22,NNE,22,0.0,2.0,88,0.00,,,0.00,Wunderground v.1.15,2013-01-07 06:42:00,
2013-01-07 01:48:00,32.5,29.6,30.22,NNE,20,0.0,0.0,89,0.00,,,0.00,Wunderground v.1.15,2013-01-07 06:48:00,
2013-01-07 01:54:00,32.2,29.9,30.22,NNE,20,0.0,0.0,91,0.00,,,0.00,Wunderground v.1.15,2013-01-07 06:54:00,
2013-01-07 02:00:00,31.9,29.6,30.22,NNE,20,0.0,0.0,91,0.00,,,0.00,Wunderground v.1.15,2013-01-07 07:00:00,
2013-01-07 02:06:00,31.6,29.3,30.22,NNE,21,0.0,0.0,91,0.00,,,0.00,Wunderground v.1.15,2013-01-07 07:06:00,
2013-01-07 02:12:00,31.4,29.1,30.23,NNE,20,0.0,0.0,91,0.00,,,0.00,Wunderground v.1.15,2013-01-07 07:12:00,
2013-01-07 02:18:00,31.1,29.0,30.23,NNE,20,0.0,0.0,92,0.00,,,0.00,Wunderground v.1.15,2013-01-07 07:18:00,
2013-01-07 02:24:00,30.9,28.9,30.23,NNE,20,0.0,0.0,92,0.00,,,0.00,Wunderground v.1.15,2013-01-07 07:24:00,
2013-01-07 02:30:00,30.8,28.8,30.23,NNE,20,0.0,0.0,92,0.00,,,0.00,Wunderground v.1.15,2013-01-07 07:30:00,
2013-01-07 02:36:00,30.5,28.5,30.23,NNE,20,0.0,0.0,92,0.00,,,0.00,Wunderground v.1.15,2013-01-07 07:36:00,
2013-01-07 02:41:00,30.2,28.2,30.23,NNE,20,0.0,0.0,92,0.00,,,0.00,Wunderground v.1.15,2013-01-07 07:41:00,
2013-01-07 02:47:00,30.0,28.2,30.23,NNE,20,0.0,0.0,93,0.00,,,0.00,Wunderground v.1.15,2013-01-07 07:47:00,
2013-01-07 02:53:00,29.7,27.9,30.23,NNE,20,0.0,0.0,93,0.00,,,0.00,Wunderground v.1.15,2013-01-07 07:53:00,
2013-01-07 02:59:00,29.6,27.8,30.23,NNE,20,0.0,0.0,93,0.00,,,0.00,Wunderground v.1.15,2013-01-07 07:59:00,
2013-01-07 03:05:00,29.3,27.5,30.24,NNE,20,0.0,0.0,93,0.00,,,0.00,Wunderground v.1.15,2013-01-07 08:05:00,
2013-01-07 03:11:00,29.2,27.7,30.24,NNE,22,0.0,0.0,94,0.00,,,0.00,Wunderground v.1.15,2013-01-07 08:11:00,
2013-01-07 03:17:00,29.3,27.8,30.25,NNE,21,0.0,0.0,94,0.00,,,0.00,Wunderground v.1.15,2013-01-07 08:17:00,
2013-01-07 03:22:00,29.0,27.5,30.24,NNE,20,0.0,0.0,94,0.00,,,0.00,Wunderground v.1.15,2013-01-07 08:22:00,
2013-01-07 03:28:00,28.8,27.3,30.24,NNE,20,0.0,0.0,94,0.00,,,0.00,Wunderground v.1.15,2013-01-07 08:28:00,
2013-01-07 03:33:00,28.6,27.1,30.25,NNE,20,0.0,0.0,94,0.00,,,0.00,Wunderground v.1.15,2013-01-07 08:33:00,
2013-01-07 03:39:00,28.5,27.0,30.25,North,1,0.0,0.0,94,0.00,,,0.00,Wunderground v.1.15,2013-01-07 08:39:00,
2013-01-07 03:45:00,28.5,27.0,30.26,ENE,67,0.0,1.0,94,0.00,,,0.00,Wunderground v.1.15,2013-01-07 08:45:00,
2013-01-07 03:51:00,28.7,27.4,30.27,East,88,0.0,0.0,95,0.00,,,0.00,Wunderground v.1.15,2013-01-07 08:51:00,
2013-01-07 03:57:00,28.7,27.4,30.26,East,86,0.0,0.0,95,0.00,,,0.00,Wunderground v.1.15,2013-01-07 08:57:00,
2013-01-07 04:02:00,28.5,27.0,30.26,East,86,0.0,0.0,94,0.00,,,0.00,Wunderground v.1.15,2013-01-07 09:02:00,
2013-01-07 04:08:00,28.1,26.6,30.26,East,86,0.0,0.0,94,0.00,,,0.00,Wunderground v.1.15,2013-01-07 09:08:00,
2013-01-07 04:14:00,27.9,26.4,30.27,East,88,0.0,0.0,94,0.00,,,0.00,Wunderground v.1.15,2013-01-07 09:14:00,
2013-01-07 04:20:00,28.0,26.8,30.27,East,86,0.0,0.0,95,0.00,,,0.00,Wunderground v.1.15,2013-01-07 09:20:00,
2013-01-07 04:26:00,27.7,26.2,30.27,ENE,76,0.0,0.0,94,0.00,,,0.00,Wunderground v.1.15,2013-01-07 09:26:00,
2013-01-07 04:32:00,27.7,26.5,30.27,ENE,77,0.0,0.0,95,0.00,,,0.00,Wunderground v.1.15,2013-01-07 09:32:00,
2013-01-07 04:38:00,27.5,26.3,30.27,ENE,77,0.0,0.0,95,0.00,,,0.00,Wunderground v.1.15,2013-01-07 09:38:00,
2013-01-07 04:44:00,27.4,26.2,30.28,ENE,77,0.0,0.0,95,0.00,,,0.00,Wunderground v.1.15,2013-01-07 09:44:00,
2013-01-07 04:50:00,27.3,26.1,30.28,ENE,76,0.0,0.0,95,0.00,,,0.00,Wunderground v.1.15,2013-01-07 09:50:00,
2013-01-07 04:56:00,27.2,26.0,30.29,ENE,76,0.0,0.0,95,0.00,,,0.00,Wunderground v.1.15,2013-01-07 09:56:00,
2013-01-07 05:02:00,27.1,25.9,30.29,ENE,76,0.0,0.0,95,0.00,,,0.00,Wunderground v.1.15,2013-01-07 10:02:00,
2013-01-07 05:07:00,26.8,25.6,30.29,ENE,76,0.0,0.0,95,0.00,,,0.00,Wunderground v.1.15,2013-01-07 10:07:00,
2013-01-07 05:13:00,26.8,25.6,30.29,ENE,76,0.0,0.0,95,0.00,,,0.00,Wunderground v.1.15,2013-01-07 10:13:00,
2013-01-07 05:18:00,26.9,25.9,30.29,East,82,0.0,0.0,96,0.00,,,0.00,Wunderground v.1.15,2013-01-07 10:18:00,
2013-01-07 05:24:00,26.9,25.7,30.29,East,79,0.0,0.0,95,0.00,,,0.00,Wunderground v.1.15,2013-01-07 10:24:00,
2013-01-07 05:30:00,26.6,25.4,30.30,East,79,0.0,0.0,95,0.00,,,0.00,Wunderground v.1.15,2013-01-07 10:30:00,
2013-01-07 05:36:00,26.5,25.3,30.30,ENE,76,0.0,0.0,95,0.00,,,0.00,Wunderground v.1.15,2013-01-07 10:36:00,
2013-01-07 05:42:00,26.5,25.5,30.30,ENE,75,0.0,0.0,96,0.00,,,0.00,Wunderground v.1.15,2013-01-07 10:42:00,
2013-01-07 05:48:00,26.5,25.5,30.31,ENE,74,0.0,0.0,96,0.00,,,0.00,Wunderground v.1.15,2013-01-07 10:48:00,
2013-01-07 05:54:00,26.3,25.1,30.30,NE,41,0.0,1.0,95,0.00,,,0.00,Wunderground v.1.15,2013-01-07 10:54:00,
2013-01-07 06:00:00,26.2,25.2,30.31,NE,42,0.0,0.0,96,0.00,,,0.00,Wunderground v.1.15,2013-01-07 11:00:00,
2013-01-07 06:06:00,26.4,25.4,30.31,NNE,12,0.0,1.0,96,0.00,,,0.00,Wunderground v.1.15,2013-01-07 11:06:00,
2013-01-07 06:12:00,26.3,25.3,30.32,NNE,12,0.0,0.0,96,0.00,,,0.00,Wunderground v.1.15,2013-01-07 11:12:00,
2013-01-07 06:17:00,26.1,24.9,30.32,NNE,12,0.0,0.0,95,0.00,,,0.00,Wunderground v.1.15,2013-01-07 11:17:00,
2013-01-07 06:23:00,25.8,24.6,30.33,NNE,12,0.0,0.0,95,0.00,,,0.00,Wunderground v.1.15,2013-01-07 11:23:00,
2013-01-07 06:28:00,25.9,24.9,30.33,East,91,0.0,1.0,96,0.00,,,0.00,Wunderground v.1.15,2013-01-07 11:28:00,
2013-01-07 06:33:00,26.0,25.0,30.34,SW,217,0.0,1.0,96,0.00,,,0.00,Wunderground v.1.15,2013-01-07 11:33:00,
2013-01-07 06:39:00,26.1,25.1,30.34,NNE,16,0.0,0.0,96,0.00,,,0.00,Wunderground v.1.15,2013-01-07 11:39:00,
2013-01-07 06:45:00,26.1,25.1,30.34,SE,125,0.0,1.0,96,0.00,,,0.00,Wunderground v.1.15,2013-01-07 11:45:00,
2013-01-07 06:51:00,25.9,24.9,30.34,NE,49,0.0,0.0,96,0.00,,,0.00,Wunderground v.1.15,2013-01-07 11:51:00,
2013-01-07 06:56:00,25.8,24.6,30.35,NE,50,0.0,0.0,95,0.00,,,0.00,Wunderground v.1.15,2013-01-07 11:56:00,
2013-01-07 07:02:00,25.9,24.9,30.35,NE,50,0.0,1.0,96,0.00,,,0.00,Wunderground v.1.15,2013-01-07 12:02:00,
2013-01-07 07:08:00,25.7,24.5,30.36,NE,48,0.0,0.0,95,0.00,,,0.00,Wunderground v.1.15,2013-01-07 12:08:00,
2013-01-07 07:14:00,25.4,24.2,30.36,NE,49,0.0,0.0,95,0.00,,,0.00,Wunderground v.1.15,2013-01-07 12:14:00,
2013-01-07 07:19:00,25.3,24.1,30.36,NE,46,0.0,0.0,95,0.00,,,0.00,Wunderground v.1.15,2013-01-07 12:19:00,
2013-01-07 07:25:00,25.3,24.1,30.37,ENE,72,0.0,0.0,95,0.00,,,0.00,Wunderground v.1.15,2013-01-07 12:25:00,
2013-01-07 07:31:00,25.3,24.3,30.36,ENE,70,0.0,0.0,96,0.00,,,0.00,Wunderground v.1.15,2013-01-07 12:31:00,
2013-01-07 07:37:00,25.5,24.5,30.37,ESE,105,0.0,1.0,96,0.00,,,0.00,Wunderground v.1.15,2013-01-07 12:37:00,
2013-01-07 07:43:00,25.6,24.6,30.38,North,354,0.0,1.0,96,0.00,,,0.00,Wunderground v.1.15,2013-01-07 12:43:00,
2013-01-07 07:49:00,25.5,24.5,30.38,East,85,0.0,0.0,96,0.00,,,0.00,Wunderground v.1.15,2013-01-07 12:49:00,
2013-01-07 07:55:00,25.5,24.5,30.38,East,84,0.0,0.0,96,0.00,,,0.00,Wunderground v.1.15,2013-01-07 12:55:00,
2013-01-07 08:01:00,25.5,24.5,30.39,ENE,63,0.0,0.0,96,0.00,,,0.00,Wunderground v.1.15,2013-01-07 13:01:00,
2013-01-07 08:07:00,25.5,24.5,30.39,NNE,23,0.0,1.0,96,0.00,,,0.00,Wunderground v.1.15,2013-01-07 13:07:00,
2013-01-07 08:13:00,25.6,24.6,30.39,NNW,335,0.0,0.0,96,0.00,,,0.00,Wunderground v.1.15,2013-01-07 13:13:00,
2013-01-07 08:19:00,26.2,25.2,30.40,SSE,155,0.0,1.0,96,0.00,,,0.00,Wunderground v.1.15,2013-01-07 13:19:00,
2013-01-07 08:25:00,27.0,26.0,30.40,SE,134,1.0,2.0,96,0.00,,,0.00,Wunderground v.1.15,2013-01-07 13:25:00,
2013-01-07 08:30:00,27.2,26.0,30.40,West,269,0.0,1.0,95,0.00,,,0.00,Wunderground v.1.15,2013-01-07 13:30:00,
2013-01-07 08:36:00,27.8,26.6,30.41,SW,232,0.0,1.0,95,0.00,,,0.00,Wunderground v.1.15,2013-01-07 13:36:00,
2013-01-07 08:42:00,28.3,26.8,30.41,NNE,16,0.0,0.0,94,0.00,,,0.00,Wunderground v.1.15,2013-01-07 13:42:00,
2013-01-07 08:48:00,28.8,27.3,30.41,SE,145,0.0,1.0,94,0.00,,,0.00,Wunderground v.1.15,2013-01-07 13:48:00,
2013-01-07 08:54:00,30.0,28.5,30.42,SE,145,0.0,1.0,94,0.00,,,0.00,Wunderground v.1.15,2013-01-07 13:54:00,
2013-01-07 09:00:00,30.9,28.9,30.42,North,353,0.0,1.0,92,0.00,,,0.00,Wunderground v.1.15,2013-01-07 14:00:00,
2013-01-07 09:06:00,31.4,29.3,30.43,NNW,337,0.0,1.0,92,0.00,,,0.00,Wunderground v.1.15,2013-01-07 14:06:00,
2013-01-07 09:12:00,32.3,30.0,30.43,NE,36,0.0,1.0,91,0.00,,,0.00,Wunderground v.1.15,2013-01-07 14:12:00,
2013-01-07 09:18:00,34.1,30.6,30.43,North,1,0.0,0.0,87,0.00,,,0.00,Wunderground v.1.15,2013-01-07 14:18:00,
2013-01-07 09:24:00,35.6,30.9,30.44,NNE,16,0.0,3.0,83,0.00,,,0.00,Wunderground v.1.15,2013-01-07 14:24:00,
2013-01-07 09:30:00,36.9,31.0,30.44,North,9,1.0,2.0,79,0.00,,,0.00,Wunderground v.1.15,2013-01-07 14:30:00,
2013-01-07 09:36:00,37.7,31.1,30.44,ENE,78,2.0,3.0,77,0.00,,,0.00,Wunderground v.1.15,2013-01-07 14:36:00,
2013-01-07 09:41:00,38.5,30.9,30.44,WSW,253,2.0,4.0,74,0.00,,,0.00,Wunderground v.1.15,2013-01-07 14:41:00,
2013-01-07 09:47:00,39.0,30.7,30.45,ENE,61,2.0,3.0,72,0.00,,,0.00,Wunderground v.1.15,2013-01-07 14:47:00,
2013-01-07 09:53:00,39.4,31.1,30.45,ENE,61,2.0,3.0,72,0.00,,,0.00,Wunderground v.1.15,2013-01-07 14:53:00,
2013-01-07 09:59:00,39.9,30.9,30.45,NE,37,2.0,2.0,70,0.00,,,0.00,Wunderground v.1.15,2013-01-07 14:59:00,
2013-01-07 10:05:00,40.4,30.7,30.45,NNE,33,2.0,4.0,68,0.00,,,0.00,Wunderground v.1.15,2013-01-07 15:05:00,
2013-01-07 10:11:00,40.7,31.3,30.45,NE,46,2.0,3.0,69,0.00,,,0.00,Wunderground v.1.15,2013-01-07 15:11:00,
2013-01-07 10:17:00,41.2,31.4,30.45,East,84,2.0,4.0,68,0.00,,,0.00,Wunderground v.1.15,2013-01-07 15:17:00,
2013-01-07 10:23:00,41.5,31.4,30.45,West,270,2.0,3.0,67,0.00,,,0.00,Wunderground v.1.15,2013-01-07 15:23:00,
2013-01-07 10:29:00,42.0,32.2,30.45,ESE,105,2.0,2.0,68,0.00,,,0.00,Wunderground v.1.15,2013-01-07 15:29:00,
2013-01-07 10:35:00,42.2,32.0,30.45,NW,323,2.0,4.0,67,0.00,,,0.00,Wunderground v.1.15,2013-01-07 15:35:00,
2013-01-07 10:41:00,42.4,30.7,30.45,East,84,2.0,6.0,63,0.00,,,0.00,Wunderground v.1.15,2013-01-07 15:41:00,
2013-01-07 10:46:00,42.4,31.5,30.45,North,357,4.0,6.0,65,0.00,,,0.00,Wunderground v.1.15,2013-01-07 15:46:00,
2013-01-07 10:52:00,42.4,30.7,30.45,NNE,18,3.0,7.0,63,0.00,,,0.00,Wunderground v.1.15,2013-01-07 15:52:00,
2013-01-07 10:58:00,42.7,30.6,30.45,ENE,60,3.0,3.0,62,0.00,,,0.00,Wunderground v.1.15,2013-01-07 15:58:00,
2013-01-07 11:04:00,43.0,30.5,30.45,NE,51,3.0,7.0,61,0.00,,,0.00,Wunderground v.1.15,2013-01-07 16:04:00,
2013-01-07 11:10:00,43.4,31.2,30.45,NW,316,3.0,3.0,62,0.00,,,0.00,Wunderground v.1.15,2013-01-07 16:10:00,
2013-01-07 11:16:00,44.1,31.5,30.45,NNE,22,1.0,3.0,61,0.00,,,0.00,Wunderground v.1.15,2013-01-07 16:16:00,
2013-01-07 11:22:00,44.0,31.8,30.44,East,85,2.0,4.0,62,0.00,,,0.00,Wunderground v.1.15,2013-01-07 16:22:00,
2013-01-07 11:28:00,44.4,32.2,30.44,ENE,67,2.0,4.0,62,0.00,,,0.00,Wunderground v.1.15,2013-01-07 16:28:00,
2013-01-07 11:34:00,44.5,30.6,30.44,NE,56,3.0,5.0,58,0.00,,,0.00,Wunderground v.1.15,2013-01-07 16:34:00,
2013-01-07 11:40:00,44.6,30.3,30.43,ENE,74,3.0,3.0,57,0.00,,,0.00,Wunderground v.1.15,2013-01-07 16:40:00,
2013-01-07 11:45:00,44.8,30.5,30.43,NNE,23,2.0,3.0,57,0.00,,,0.00,Wunderground v.1.15,2013-01-07 16:45:00,
2013-01-07 11:51:00,45.4,31.0,30.43,North,11,1.0,2.0,57,0.00,,,0.00,Wunderground v.1.15,2013-01-07 16:51:00,
2013-01-07 11:57:00,45.5,30.7,30.43,South,187,1.0,5.0,56,0.00,,,0.00,Wunderground v.1.15,2013-01-07 16:57:00,
2013-01-07 12:04:00,45.8,30.5,30.42,ESE,106,2.0,2.0,55,0.00,,,0.00,Wunderground v.1.15,2013-01-07 17:04:00,
2013-01-07 12:09:00,46.2,31.4,30.42,East,99,2.0,3.0,56,0.00,,,0.00,Wunderground v.1.15,2013-01-07 17:09:00,
2013-01-07 12:15:00,46.2,31.4,30.42,SE,131,2.0,3.0,56,0.00,,,0.00,Wunderground v.1.15,2013-01-07 17:15:00,
2013-01-07 12:21:00,46.5,30.7,30.42,ESE,120,2.0,4.0,54,0.00,,,0.00,Wunderground v.1.15,2013-01-07 17:21:00,
2013-01-07 12:27:00,46.9,30.2,30.42,ESE,103,1.0,4.0,52,0.00,,,0.00,Wunderground v.1.15,2013-01-07 17:27:00,
2013-01-07 12:33:00,47.0,30.7,30.41,West,276,1.0,1.0,53,0.00,,,0.00,Wunderground v.1.15,2013-01-07 17:33:00,
2013-01-07 12:39:00,46.9,32.0,30.41,West,277,2.0,2.0,56,0.00,,,0.00,Wunderground v.1.15,2013-01-07 17:39:00,
2013-01-07 12:45:00,47.4,31.1,30.41,SE,137,2.0,6.0,53,0.00,,,0.00,Wunderground v.1.15,2013-01-07 17:45:00,
2013-01-07 12:51:00,47.6,30.8,30.40,East,87,2.0,3.0,52,0.00,,,0.00,Wunderground v.1.15,2013-01-07 17:51:00,
2013-01-07 12:57:00,48.0,32.1,30.40,NNW,330,1.0,3.0,54,0.00,,,0.00,Wunderground v.1.15,2013-01-07 17:57:00,
2013-01-07 13:03:00,48.7,32.8,30.40,SE,141,1.0,4.0,54,0.00,,,0.00,Wunderground v.1.15,2013-01-07 18:03:00,
2013-01-07 13:09:00,48.7,31.8,30.40,ESE,104,1.0,4.0,52,0.00,,,0.00,Wunderground v.1.15,2013-01-07 18:09:00,
2013-01-07 13:15:00,49.0,32.1,30.40,ESE,122,1.0,4.0,52,0.00,,,0.00,Wunderground v.1.15,2013-01-07 18:15:00,
2013-01-07 13:21:00,48.9,31.5,30.40,East,86,2.0,4.0,51,0.00,,,0.00,Wunderground v.1.15,2013-01-07 18:21:00,
2013-01-07 13:26:00,48.9,32.0,30.39,WSW,245,2.0,4.0,52,0.00,,,0.00,Wunderground v.1.15,2013-01-07 18:26:00,
2013-01-07 13:32:00,48.8,31.0,30.39,ENE,64,2.0,4.0,50,0.00,,,0.00,Wunderground v.1.15,2013-01-07 18:32:00,
2013-01-07 13:38:00,48.7,31.4,30.39,East,91,2.0,2.0,51,0.00,,,0.00,Wunderground v.1.15,2013-01-07 18:38:00,
2013-01-07 13:44:00,48.9,31.5,30.39,NNE,20,1.0,4.0,51,0.00,,,0.00,Wunderground v.1.15,2013-01-07 18:44:00,
2013-01-07 13:50:00,48.4,31.1,30.39,East,86,3.0,4.0,51,0.00,,,0.00,Wunderground v.1.15,2013-01-07 18:50:00,
2013-01-07 13:56:00,48.1,30.8,30.39,NNW,347,3.0,4.0,51,0.00,,,0.00,Wunderground v.1.15,2013-01-07 18:56:00,
2013-01-07 14:02:00,48.4,31.1,30.39,WNW,301,2.0,4.0,51,0.00,,,0.00,Wunderground v.1.15,2013-01-07 19:02:00,
2013-01-07 14:08:00,48.7,31.4,30.39,East,91,2.0,2.0,51,0.00,,,0.00,Wunderground v.1.15,2013-01-07 19:08:00,
2013-01-07 14:14:00,49.3,31.9,30.39,NW,309,1.0,4.0,51,0.00,,,0.00,Wunderground v.1.15,2013-01-07 19:14:00,
2013-01-07 14:20:00,49.7,31.3,30.39,WNW,299,1.0,4.0,49,0.00,,,0.00,Wunderground v.1.15,2013-01-07 19:20:00,
2013-01-07 14:26:00,50.0,32.1,30.39,ENE,58,1.0,4.0,50,0.00,,,0.00,Wunderground v.1.15,2013-01-07 19:26:00,
2013-01-07 14:32:00,50.6,32.1,30.39,East,86,1.0,4.0,49,0.00,,,0.00,Wunderground v.1.15,2013-01-07 19:32:00,
2013-01-07 14:38:00,50.4,31.9,30.39,SE,142,2.0,2.0,49,0.00,,,0.00,Wunderground v.1.15,2013-01-07 19:38:00,
2013-01-07 14:44:00,50.3,31.3,30.39,ESE,121,2.0,4.0,48,0.00,,,0.00,Wunderground v.1.15,2013-01-07 19:44:00,
2013-01-07 14:50:00,50.4,31.4,30.39,East,89,1.0,4.0,48,0.00,,,0.00,Wunderground v.1.15,2013-01-07 19:50:00,
2013-01-07 14:56:00,50.5,32.0,30.39,SE,125,1.0,4.0,49,0.00,,,0.00,Wunderground v.1.15,2013-01-07 19:56:00,
2013-01-07 15:02:00,51.2,31.6,30.39,SW,231,1.0,4.0,47,0.00,,,0.00,Wunderground v.1.15,2013-01-07 20:02:00,
2013-01-07 15:08:00,51.6,32.0,30.39,SSE,148,2.0,2.0,47,0.00,,,0.00,Wunderground v.1.15,2013-01-07 20:08:00,
2013-01-07 15:14:00,51.7,32.1,30.40,SW,222,1.0,4.0,47,0.00,,,0.00,Wunderground v.1.15,2013-01-07 20:14:00,
2013-01-07 15:20:00,51.4,31.8,30.40,WSW,240,2.0,4.0,47,0.00,,,0.00,Wunderground v.1.15,2013-01-07 20:20:00,
2013-01-07 15:25:00,51.6,31.5,30.40,ENE,75,2.0,4.0,46,0.00,,,0.00,Wunderground v.1.15,2013-01-07 20:25:00,
2013-01-07 15:31:00,51.4,31.8,30.40,SSE,164,1.0,4.0,47,0.00,,,0.00,Wunderground v.1.15,2013-01-07 20:31:00,
2013-01-07 15:36:00,51.5,31.4,30.40,South,180,1.0,4.0,46,0.00,,,0.00,Wunderground v.1.15,2013-01-07 20:36:00,
2013-01-07 15:39:00,51.4,31.3,30.40,SSW,211,2.0,4.0,46,0.00,,,0.00,Wunderground v.1.15,2013-01-07 20:39:00,
2013-01-07 15:45:00,51.5,31.4,30.41,SW,220,2.0,4.0,46,0.00,,,0.00,Wunderground v.1.15,2013-01-07 20:45:00,
2013-01-07 15:51:00,51.6,30.9,30.41,West,273,2.0,4.0,45,0.00,,,0.00,Wunderground v.1.15,2013-01-07 20:51:00,
2013-01-07 15:56:00,52.0,31.8,30.41,SE,135,1.0,4.0,46,0.00,,,0.00,Wunderground v.1.15,2013-01-07 20:56:00,
2013-01-07 16:02:00,52.4,32.2,30.41,West,267,1.0,4.0,46,0.00,,,0.00,Wunderground v.1.15,2013-01-07 21:02:00,
2013-01-07 16:08:00,52.5,32.3,30.41,SSW,193,1.0,4.0,46,0.00,,,0.00,Wunderground v.1.15,2013-01-07 21:08:00,
2013-01-07 16:14:00,51.6,31.5,30.41,SW,216,2.0,4.0,46,0.00,,,0.00,Wunderground v.1.15,2013-01-07 21:14:00,
2013-01-07 16:20:00,51.2,31.1,30.41,SSW,195,1.0,4.0,46,0.00,,,0.00,Wunderground v.1.15,2013-01-07 21:20:00,
2013-01-07 16:25:00,51.1,32.6,30.41,SSW,198,1.0,4.0,49,0.00,,,0.00,Wunderground v.1.15,2013-01-07 21:25:00,
2013-01-07 16:31:00,50.6,31.6,30.41,SSE,157,1.0,4.0,48,0.00,,,0.00,Wunderground v.1.15,2013-01-07 21:31:00,
2013-01-07 16:37:00,50.4,31.4,30.41,East,98,1.0,4.0,48,0.00,,,0.00,Wunderground v.1.15,2013-01-07 21:37:00,
2013-01-07 16:43:00,49.7,31.3,30.41,SE,129,1.0,4.0,49,0.00,,,0.00,Wunderground v.1.15,2013-01-07 21:43:00,
2013-01-07 16:49:00,49.2,31.3,30.41,SE,125,1.0,4.0,50,0.00,,,0.00,Wunderground v.1.15,2013-01-07 21:49:00,
2013-01-07 16:55:00,48.7,31.4,30.41,SSE,162,1.0,4.0,51,0.00,,,0.00,Wunderground v.1.15,2013-01-07 21:55:00,
2013-01-07 17:01:00,48.3,31.0,30.41,SSE,162,0.0,4.0,51,0.00,,,0.00,Wunderground v.1.15,2013-01-07 22:01:00,
2013-01-07 17:07:00,47.6,30.8,30.41,East,90,0.0,4.0,52,0.00,,,0.00,Wunderground v.1.15,2013-01-07 22:07:00,
2013-01-07 17:13:00,47.1,30.8,30.41,East,90,0.0,4.0,53,0.00,,,0.00,Wunderground v.1.15,2013-01-07 22:13:00,
2013-01-07 17:19:00,46.3,31.0,30.41,East,91,0.0,4.0,55,0.00,,,0.00,Wunderground v.1.15,2013-01-07 22:19:00,
2013-01-07 17:25:00,45.3,31.4,30.41,East,90,0.0,4.0,58,0.00,,,0.00,Wunderground v.1.15,2013-01-07 22:25:00,
2013-01-07 17:31:00,44.0,31.8,30.42,NNE,21,0.0,4.0,62,0.00,,,0.00,Wunderground v.1.15,2013-01-07 22:31:00,
2013-01-07 17:36:00,43.0,31.6,30.41,NNE,20,0.0,4.0,64,0.00,,,0.00,Wunderground v.1.15,2013-01-07 22:36:00,
2013-01-07 17:42:00,42.0,31.5,30.42,NNE,20,0.0,4.0,66,0.00,,,0.00,Wunderground v.1.15,2013-01-07 22:42:00,
2013-01-07 17:48:00,41.0,30.9,30.42,NNE,21,0.0,4.0,67,0.00,,,0.00,Wunderground v.1.15,2013-01-07 22:48:00,
2013-01-07 17:54:00,40.1,30.7,30.42,NNE,20,0.0,4.0,69,0.00,,,0.00,Wunderground v.1.15,2013-01-07 22:54:00,
2013-01-07 18:00:00,39.2,30.6,30.42,NNE,20,0.0,4.0,71,0.00,,,0.00,Wunderground v.1.15,2013-01-07 23:00:00,
2013-01-07 18:05:00,38.6,30.7,30.42,NNE,20,0.0,4.0,73,0.00,,,0.00,Wunderground v.1.15,2013-01-07 23:05:00,
2013-01-07 18:11:00,37.9,30.4,30.42,NNE,20,0.0,0.0,74,0.00,,,0.00,Wunderground v.1.15,2013-01-07 23:11:00,
2013-01-07 18:16:00,37.4,30.5,30.42,NNE,20,0.0,0.0,76,0.00,,,0.00,Wunderground v.1.15,2013-01-07 23:16:00,
2013-01-07 18:22:00,36.9,30.4,30.43,NNE,20,0.0,0.0,77,0.00,,,0.00,Wunderground v.1.15,2013-01-07 23:22:00,
2013-01-07 18:28:00,36.4,30.5,30.43,NNE,20,0.0,0.0,79,0.00,,,0.00,Wunderground v.1.15,2013-01-07 23:28:00,
2013-01-07 18:34:00,35.9,30.0,30.43,NNE,20,0.0,0.0,79,0.00,,,0.00,Wunderground v.1.15,2013-01-07 23:34:00,
2013-01-07 18:40:00,35.4,29.8,30.43,NNE,20,0.0,0.0,80,0.00,,,0.00,Wunderground v.1.15,2013-01-07 23:40:00,
2013-01-07 18:46:00,35.1,29.9,30.43,NNE,20,0.0,0.0,81,0.00,,,0.00,Wunderground v.1.15,2013-01-07 23:46:00,
2013-01-07 18:52:00,34.7,29.8,30.44,NNE,20,0.0,0.0,82,0.00,,,0.00,Wunderground v.1.15,2013-01-07 23:52:00,
2013-01-07 18:58:00,34.3,29.7,30.43,NNE,20,0.0,0.0,83,0.00,,,0.00,Wunderground v.1.15,2013-01-07 23:58:00,
2013-01-07 19:04:00,33.9,29.6,30.44,NNE,20,0.0,0.0,84,0.00,,,0.00,Wunderground v.1.15,2013-01-08 00:04:00,
2013-01-07 19:09:00,33.6,29.6,30.44,NNE,21,0.0,0.0,85,0.00,,,0.00,Wunderground v.1.15,2013-01-08 00:09:00,
2013-01-07 19:15:00,33.4,29.1,30.44,NNE,20,0.0,0.0,84,0.00,,,0.00,Wunderground v.1.15,2013-01-08 00:15:00,
2013-01-07 19:21:00,33.0,29.0,30.44,NNE,21,0.0,0.0,85,0.00,,,0.00,Wunderground v.1.15,2013-01-08 00:21:00,
2013-01-07 19:27:00,32.6,28.6,30.44,NNE,20,0.0,0.0,85,0.00,,,0.00,Wunderground v.1.15,2013-01-08 00:27:00,
2013-01-07 19:32:00,32.2,28.5,30.44,NNE,20,0.0,0.0,86,0.00,,,0.00,Wunderground v.1.15,2013-01-08 00:32:00,
2013-01-07 19:38:00,32.2,28.8,30.44,NNE,20,0.0,0.0,87,0.00,,,0.00,Wunderground v.1.15,2013-01-08 00:38:00,
2013-01-07 19:44:00,32.0,28.8,30.44,NNE,20,0.0,0.0,88,0.00,,,0.00,Wunderground v.1.15,2013-01-08 00:44:00,
2013-01-07 19:50:00,31.7,28.6,30.44,NNE,20,0.0,0.0,88,0.00,,,0.00,Wunderground v.1.15,2013-01-08 00:50:00,
2013-01-07 19:56:00,31.3,27.9,30.44,NNE,20,0.0,0.0,87,0.00,,,0.00,Wunderground v.1.15,2013-01-08 00:56:00,
2013-01-07 20:02:00,30.8,27.7,30.44,NNE,20,0.0,0.0,88,0.00,,,0.00,Wunderground v.1.15,2013-01-08 01:02:00,
2013-01-07 20:08:00,30.8,27.9,30.44,NNE,20,0.0,0.0,89,0.00,,,0.00,Wunderground v.1.15,2013-01-08 01:08:00,
2013-01-07 20:14:00,30.7,27.8,30.44,NNE,20,0.0,0.0,89,0.00,,,0.00,Wunderground v.1.15,2013-01-08 01:14:00,
2013-01-07 20:20:00,30.5,27.9,30.44,NNE,20,0.0,0.0,90,0.00,,,0.00,Wunderground v.1.15,2013-01-08 01:20:00,
2013-01-07 20:26:00,30.6,28.3,30.44,NNE,20,0.0,0.0,91,0.00,,,0.00,Wunderground v.1.15,2013-01-08 01:26:00,
2013-01-07 20:32:00,30.3,27.7,30.44,NNE,20,0.0,0.0,90,0.00,,,0.00,Wunderground v.1.15,2013-01-08 01:32:00,
2013-01-07 20:38:00,30.1,27.5,30.44,NNE,20,0.0,0.0,90,0.00,,,0.00,Wunderground v.1.15,2013-01-08 01:38:00,
2013-01-07 20:44:00,29.8,27.2,30.44,NNE,20,0.0,0.0,90,0.00,,,0.00,Wunderground v.1.15,2013-01-08 01:44:00,
2013-01-07 20:50:00,29.4,26.8,30.44,NNE,20,0.0,0.0,90,0.00,,,0.00,Wunderground v.1.15,2013-01-08 01:50:00,
2013-01-07 20:56:00,29.2,26.9,30.44,NNE,20,0.0,0.0,91,0.00,,,0.00,Wunderground v.1.15,2013-01-08 01:56:00,
2013-01-07 21:02:00,28.9,26.3,30.44,NNE,20,0.0,0.0,90,0.00,,,0.00,Wunderground v.1.15,2013-01-08 02:02:00,
2013-01-07 21:08:00,29.0,27.0,30.44,NNE,20,0.0,0.0,92,0.00,,,0.00,Wunderground v.1.15,2013-01-08 02:08:00,
2013-01-07 21:14:00,28.9,26.9,30.44,NNE,20,0.0,0.0,92,0.00,,,0.00,Wunderground v.1.15,2013-01-08 02:14:00,
2013-01-07 21:20:00,28.8,26.8,30.44,NNE,20,0.0,0.0,92,0.00,,,0.00,Wunderground v.1.15,2013-01-08 02:20:00,
2013-01-07 21:26:00,28.8,26.8,30.44,NNE,20,0.0,0.0,92,0.00,,,0.00,Wunderground v.1.15,2013-01-08 02:26:00,
2013-01-07 21:31:00,28.6,26.6,30.44,NNE,20,0.0,0.0,92,0.00,,,0.00,Wunderground v.1.15,2013-01-08 02:31:00,
2013-01-07 21:37:00,28.3,26.3,30.43,NNE,20,0.0,0.0,92,0.00,,,0.00,Wunderground v.1.15,2013-01-08 02:37:00,
2013-01-07 21:43:00,28.1,26.1,30.44,NNE,20,0.0,0.0,92,0.00,,,0.00,Wunderground v.1.15,2013-01-08 02:43:00,
2013-01-07 21:49:00,28.0,26.2,30.44,NNE,20,0.0,0.0,93,0.00,,,0.00,Wunderground v.1.15,2013-01-08 02:49:00,
2013-01-07 21:55:00,28.0,26.2,30.43,NNE,20,0.0,0.0,93,0.00,,,0.00,Wunderground v.1.15,2013-01-08 02:55:00,
2013-01-07 22:01:00,28.0,26.2,30.43,NNE,20,0.0,0.0,93,0.00,,,0.00,Wunderground v.1.15,2013-01-08 03:01:00,
2013-01-07 22:07:00,27.7,25.7,30.43,NNE,20,0.0,0.0,92,0.00,,,0.00,Wunderground v.1.15,2013-01-08 03:07:00,
2013-01-07 22:13:00,27.4,25.6,30.43,NNE,20,0.0,0.0,93,0.00,,,0.00,Wunderground v.1.15,2013-01-08 03:13:00,
2013-01-07 22:18:00,27.3,25.5,30.43,NNE,20,0.0,0.0,93,0.00,,,0.00,Wunderground v.1.15,2013-01-08 03:18:00,
2013-01-07 22:24:00,27.3,25.5,30.43,NNE,20,0.0,0.0,93,0.00,,,0.00,Wunderground v.1.15,2013-01-08 03:24:00,
2013-01-07 22:30:00,27.0,25.2,30.43,NNE,20,0.0,0.0,93,0.00,,,0.00,Wunderground v.1.15,2013-01-08 03:30:00,
2013-01-07 22:36:00,27.0,25.5,30.43,NNE,20,0.0,0.0,94,0.00,,,0.00,Wunderground v.1.15,2013-01-08 03:36:00,
2013-01-07 22:41:00,26.9,25.4,30.43,NNE,20,0.0,0.0,94,0.00,,,0.00,Wunderground v.1.15,2013-01-08 03:41:00,
2013-01-07 22:47:00,26.6,24.8,30.43,NNE,20,0.0,0.0,93,0.00,,,0.00,Wunderground v.1.15,2013-01-08 03:47:00,
2013-01-07 22:53:00,26.6,25.1,30.42,NNE,20,0.0,0.0,94,0.00,,,0.00,Wunderground v.1.15,2013-01-08 03:53:00,
2013-01-07 22:58:00,26.6,25.1,30.43,NNE,20,0.0,0.0,94,0.00,,,0.00,Wunderground v.1.15,2013-01-08 03:58:00,
2013-01-07 23:04:00,26.6,25.1,30.43,NNE,20,0.0,0.0,94,0.00,,,0.00,Wunderground v.1.15,2013-01-08 04:04:00,
2013-01-07 23:10:00,26.4,24.9,30.43,NNE,20,0.0,0.0,94,0.00,,,0.00,Wunderground v.1.15,2013-01-08 04:10:00,
2013-01-07 23:16:00,26.4,24.9,30.43,NNE,20,0.0,1.0,94,0.00,,,0.00,Wunderground v.1.15,2013-01-08 04:16:00,
2013-01-07 23:22:00,26.3,24.8,30.43,NNE,20,0.0,0.0,94,0.00,,,0.00,Wunderground v.1.15,2013-01-08 04:22:00,
2013-01-07 23:28:00,26.1,24.6,30.43,NNE,20,0.0,0.0,94,0.00,,,0.00,Wunderground v.1.15,2013-01-08 04:28:00,
2013-01-07 23:34:00,26.1,24.6,30.43,NNE,20,0.0,0.0,94,0.00,,,0.00,Wunderground v.1.15,2013-01-08 04:34:00,
2013-01-07 23:40:00,26.2,24.7,30.44,NNE,20,0.0,0.0,94,0.00,,,0.00,Wunderground v.1.15,2013-01-08 04:40:00,
2013-01-07 23:46:00,26.2,24.7,30.44,NNE,20,0.0,0.0,94,0.00,,,0.00,Wunderground v.1.15,2013-01-08 04:46:00,
2013-01-07 23:52:00,26.1,24.6,30.43,NNE,20,0.0,0.0,94,0.00,,,0.00,Wunderground v.1.15,2013-01-08 04:52:00,
2013-01-07 23:58:00,26.0,24.5,30.43,NNE,20,0.0,0.0,94,0.00,,,0.00,Wunderground v.1.15,2013-01-08 04:58:00,